Simultaneous Nadir Overpasses (SNOs) Predictions

Prediction of SNOs between METOP-B and TERRA Satellite Orbit:

Table of predicted SNOs for the next 14.0 days since TLE Epoch: 1/18/2020
Index Date (METOP-B) Time (METOP-B) Lat,Lon (METOP-B) SZA (METOP-B ) Date (TERRA) Time (TERRA) Lat,Lon (TERRA) SZA (TERRA ) Distance(km) Time Diff (sec)
1 01/19/2020 03:28:18 81.29, 174.66 104.06 01/19/2020 03:29:01 81.29, 174.70 104.09 0.74 43
2 01/19/2020 04:18:58 -81.29, -17.65 75.91 01/19/2020 04:18:28 -81.28, -17.79 75.94 2.38 30
3 01/21/2020 23:02:41 81.29,-118.64 103.47 01/21/2020 23:03:20 81.29,-118.81 103.47 2.80 39
4 01/21/2020 23:53:22 -81.29, 48.69 76.54 01/21/2020 23:52:47 -81.29, 48.74 76.55 0.82 35
5 01/24/2020 18:37:04 81.29, -52.35 102.79 01/24/2020 18:37:38 81.30, -52.37 102.81 0.84 34
6 01/24/2020 19:27:45 -81.29, 115.03 77.22 01/24/2020 19:27:05 -81.29, 115.21 77.22 3.09 40
7 01/27/2020 14:11:28 81.29, 13.94 102.06 01/27/2020 14:11:57 81.29, 14.02 102.09 1.56 29
8 01/27/2020 15:02:08 -81.29,-178.25 77.90 01/27/2020 15:01:24 -81.29,-178.37 77.93 2.04 44
9 01/30/2020 09:45:52 81.28, 80.22 101.29 01/30/2020 09:46:16 81.29, 80.35 101.32 2.22 24




NCC Satellite Simultaneous Nadir Overpasses (SNOs) Prediction Service
